Погода в Поселье

Россия / Республика Бурятия     50°36′50″N   107°53′40″E
темп.,
°C
ветер,
м/с
пор.,
м/с
влажн.,
%
обл.,
%
осадки,
мм/ч
давл.,
гПа
погр.,
м
24 января, вс
вс2423:00−15ю0192100 0.0 102520
02:00−15с1194100 0.0 102620
05:00−15ссв0197100 0.0 102720
08:00−15с1198100 0.1 102821
11:00−12ссв1294100 0.1 1027205
14:00−11ссв2391100 0.3 1025396
17:00−12с2397100 0.4 1026180
20:00−14ссз1298100 1.1 102691
25 января, пн
пн2523:00−14сз1298100 1.1 102686
02:00−15зсз1298100 1.9 102494
05:00−16з1298100 0.9 1024104
08:00−17з2298100 1.4 1025105
11:00−17зсз3695100 0.7 1025711
14:00−17зсз4794100 1.3 1024729
17:00−19зсз4997100 0.4 1026733
20:00−20зсз51096100 0.8 1028728
26 января, вт
вт2623:00−20з61296100 0.3 1029989
02:00−20з61295100 0.6 10301037
05:00−21зсз61394100 0.2 1030998
08:00−22з51394100 0.3 1033871
11:00−21з6118465 0.0 1033790
14:00−19з488264 0.0 1032746
17:00−22з379077 0.0 1032352
20:00−26юз239272 0.0 103461
27 января, ср
ср2723:00−28юз229022 0.0 103624
02:00−28юз228711 0.0 103623
05:00−29юз22890 0.0 103727
08:00−29зюз23913 0.0 103952
11:00−25зсз4108619 0.0 1038682
14:00−24зсз5108740 0.0 1037865
17:00−25зсз4119397 0.0 1038923
20:00−28з399377 0.0 1041243
28 января, чт
чт2823:00−29зюз25880 0.0 104292
02:00−30зюз23860 0.0 104251
05:00−30юз22855 0.0 104119
08:00−30ююз22915 0.0 104119
11:00−24зюз12870 0.0 1039202
14:00−20з23813 0.0 1035451
17:00−24зюз119568 0.0 103520
20:00−25ююз228775 0.0 103724